Regional Weather Roundup
Issued by NWS

Home | Current Version | Previous Version | Graphics & Text | Print | Product List | Glossary On
Versions: 1 2 3 4 5 6 7 8 9 10 11 12 13 14 15 16 17 18 19 20 21 22 23 24 25 26 27 28 29 30 31 32 33 34 35 36 37 38 39 40 41 42 43 44 45 46 47 48 49 50
000
ASUS43 KFSD 022202
RWRSD

WEATHER ROUNDUP FOR SOUTH DAKOTA
NATIONAL WEATHER SERVICE SIOUX FALLS SD
500 PM CDT MON MAY 02 2016

NOTE: "FAIR" INDICATES FEW OR NO CLOUDS BELOW 12,000 FEET WITH NO
SIGNIFICANT WEATHER AND/OR OBSTRUCTIONS TO VISIBILITY.


SDZ001>005-009-010-012>017-022300-
NORTHWEST AND NORTH CENTRAL SOUTH DAKOTA

CITY           SKY/WX    TMP DP  RH WIND       PRES   REMARKS
BUFFALO          N/A     68  32  26 NW24      29.92F
FAITH            N/A     51  43  74 S16       29.95F
MOBRIDGE       PTSUNNY   62  46  55 SW8       29.94F
$$

SDZ012>016-024>037-041>051-057-063-072>074-022300-
SOUTHWEST AND SOUTH CENTRAL SOUTH DAKOTA

CITY           SKY/WX    TMP DP  RH WIND       PRES   REMARKS
RAPID CTY ARPT MOSUNNY   64  33  31 NW20G31   30.00F
PIERRE         CLOUDY    60  40  47 W12       29.99F
CUSTER         PTSUNNY   54  26  34 VRB5G16   30.06F
PHILIP         LGT RAIN  54  44  69 E5        30.03F
PINE RIDGE     CLOUDY    59  29  31 CALM      30.04
WINNER         LGT RAIN  57  42  57 NW7       30.03R
$$

SDZ004>011-016>023-039-040-022300-
NORTHEAST SOUTH DAKOTA

CITY           SKY/WX    TMP DP  RH WIND       PRES   REMARKS
ABERDEEN       PTSUNNY   61  42  49 NW8       30.00F
WATERTOWN      PTSUNNY   63  32  31 S5        29.99F
BROOKINGS      CLOUDY    64  35  34 S9        30.00F
SISSETON         N/A     66  26  22 CALM      29.96F
$$

SDZ017-020-022-023-036>040-048>070-022300-
SOUTHEAST SOUTH DAKOTA

CITY           SKY/WX    TMP DP  RH WIND       PRES   REMARKS
SIOUX FALLS    CLOUDY    62  38  40 VRB3      30.02F
HURON          CLOUDY    61  38  42 W8        29.98F
MITCHELL       SUNNY     64  39  39 S8        30.01F
YANKTON        CLOUDY    61  36  39 SW7       30.03F
$$

ABBREVIATIONS USED IN REMARKS
   TC - TEMPERATURE IN CELSIUS
  WCI - WIND CHILL INDEX
   HX - HEAT INDEX
  VSB - VISIBILITY




USA.gov is the U.S. government's official web portal to all federal, state and local government web resources and services.